Погода в Юме

США     32°43′31″N   114°37′24″W
темп.,
°C
ветер,
м/с
пор.,
м/с
влажн.,
%
обл.,
%
осадки,
мм/ч
давл.,
гПа
погр.,
м
19 апреля, пн
пн1923:00+21с5980 0.0 1013121
02:00+18с44110 0.0 101333
05:00+17ссв33120 0.0 101318
08:00+22ссв34100 0.0 1015185
11:00+29всв23120 0.0 10151687
14:00+33ссз4570 0.0 10123035
17:00+33зсз4460 0.0 10092955
20:00+25юз331058 0.0 101012
20 апреля, вт
вт2023:00+21зюз44110 0.0 101020
02:00+17ююз22180 0.0 101011
05:00+16ююв22220 0.0 100911
08:00+24ююв22130 0.0 1010171
11:00+32ю7780 0.0 10101308
14:00+34ююз8850 0.0 10072721
17:00+34ююз8760 0.0 10042536
20:00+24ю59150 0.0 1005113
21 апреля, ср
ср2123:00+19юз22260 0.0 100612
02:00+16ююв22335 0.0 100611
05:00+13сз11440 0.0 100511
08:00+20ю46313 0.0 1007447
11:00+26з55165 0.0 10071283
14:00+30з67100 0.0 10052029
17:00+27зсз1311180 0.0 1004934
20:00+19зсз1117370 0.0 1005349
22 апреля, чт
чт2223:00+14зсз36580 0.0 1007115
02:00+11ю22690 0.0 100712
05:00+11ююз22730 0.0 100811
08:00+16зюз13530 0.0 1010320
11:00+23зюз44290 0.0 10101298
14:00+27юз43200 0.0 10072100
17:00+28юз43170 0.0 10052455
20:00+21ю44240 0.0 100638
23 апреля, пт
пт2323:00+17ююз46540 0.0 100882
02:00+15юз33635 0.0 100919
05:00+13ююз22695 0.0 101010
08:00+19ююз34520 0.0 1012366
11:00+25ююз55320 0.0 10121140
14:00+30ююз66220 0.0 10101644
17:00+30ююз66185 0.0 10081959
20:00+22ю511400 0.0 1010175